Lafayette, LA

1:32 PM CST on December 06, 2016 (GMT -0600)
Lafayette Regional

Weather History for KLFT - April, 2013

Change the Weather History Date:

Friday, April 19, 2013

  Actual Average Record
Temperature  
Mean Temperature 54 °F 70 °F  
Max Temperature 61 °F 80 °F 91 °F (1987)
Min Temperature 47 °F 60 °F 40 °F (1901)
Degree Days  
Heating Degree Days 11 1  
Month to date heating degree days 46 34  
Since 1 July heating degree days 1291 1414  
Cooling Degree Days 0 6  
Month to date cooling degree days 69 84  
Year to date cooling degree days 129 179  
Growing Degree Days 3 (Base 50)    
Moisture  
Dew Point 38 °F    
Average Humidity 60    
Maximum Humidity 83    
Minimum Humidity 36    
Precipitation  
Precipitation T in 0.14 in 1.55 in (1914)
Month to date precipitation 4.78 2.40  
Year to date precipitation 24.85 16.31  
Snow  
Snow 0.00 in 0.00 in 0.00 in ()
Month to date snowfall 0.0 0.0  
Since 1 July snowfall 0.0 T  
Snow Depth 0.00 in    
Sea Level Pressure  
Sea Level Pressure 30.10 in    
Wind  
Wind Speed 13 mph (NNW)    
Max Wind Speed 25 mph    
Max Gust Speed 35 mph    
Visibility 10 miles    
Events Rain    
T = Trace of Precipitation, MM = Missing Value Source: NWS Daily Summary

Daily Weather History Graph

Daily Weather History Graph

Search for Another Location

Airport or City:

Trip Planner

Search our weather history database for the weather conditions in past years. The results will help you decide how hot, cold, wet, or windy it might be!

Date:

Astronomy

Apr. 19, 2013 Rise Set
Actual Time 6:36 AM CDT 7:38 PM CDT
Civil Twilight 6:11 AM CDT 8:02 PM CDT
Nautical Twilight 5:42 AM CDT 8:32 PM CDT
Astronomical Twilight 5:12 AM CDT 9:02 PM CDT
Moon 1:48 PM CDT (4/19) 2:25 AM CDT (4/19)
Length of Visible Light 13h 51m
Length of Day
13h 01m
First Quarter, 62% of the Moon is Illuminated
Apr 19
First Quarter
Apr 25
Full
May 2
Last Quarter
May 9
New
May 17
First Quarter

Hourly Weather History & Observations

Time (CDT) Temp. Dew Point Humidity Pressure Visibility Wind Dir Wind Speed Gust Speed Precip Events Conditions
12:53 AM 53.1 °F 48.9 °F 86% 29.97 in 10.0 mi NNW 19.6 mph 28.8 mph 0.01 in Rain Light Rain
1:10 AM 53.6 °F 48.2 °F 82% 29.98 in 10.0 mi NNW 20.7 mph 26.5 mph 0.00 in   Overcast
1:17 AM 53.6 °F 46.4 °F 77% 29.98 in 10.0 mi NNW 16.1 mph 26.5 mph 0.00 in   Overcast
1:53 AM 52.0 °F 46.0 °F 80% 29.98 in 10.0 mi NNW 19.6 mph 29.9 mph 0.00 in   Overcast
2:53 AM 52.0 °F 44.1 °F 74% 29.99 in 10.0 mi NNW 18.4 mph 27.6 mph N/A   Mostly Cloudy
3:53 AM 52.0 °F 44.1 °F 74% 30.03 in 10.0 mi NNW 12.7 mph 20.7 mph N/A   Overcast
4:53 AM 51.1 °F 42.1 °F 71% 30.03 in 10.0 mi NNW 18.4 mph 25.3 mph N/A   Scattered Clouds
5:05 AM 50.0 °F 41.0 °F 71% 30.03 in 10.0 mi NNW 18.4 mph 27.6 mph N/A   Mostly Cloudy
5:33 AM 48.2 °F 37.4 °F 66% 30.03 in 10.0 mi NNW 20.7 mph 32.2 mph N/A   Partly Cloudy
5:53 AM 48.9 °F 37.0 °F 64% 30.05 in 10.0 mi NNW 23.0 mph 31.1 mph N/A   Clear
6:53 AM 46.9 °F 36.0 °F 66% 30.09 in 10.0 mi North 17.3 mph - N/A   Clear
7:53 AM 46.9 °F 37.0 °F 68% 30.13 in 10.0 mi North 13.8 mph - N/A   Clear
8:53 AM 50.0 °F 37.0 °F 61% 30.14 in 10.0 mi North 15.0 mph 19.6 mph N/A   Clear
9:53 AM 51.1 °F 33.1 °F 50% 30.18 in 10.0 mi NNW 15.0 mph - N/A   Clear
10:53 AM 54.0 °F 34.0 °F 47% 30.19 in 10.0 mi NNW 15.0 mph 21.9 mph N/A   Clear
11:53 AM 57.0 °F 33.1 °F 40% 30.15 in 10.0 mi North 15.0 mph - N/A   Clear
12:53 PM 59.0 °F 33.1 °F 38% 30.14 in 10.0 mi NNW 19.6 mph 24.2 mph N/A   Clear
1:53 PM 60.1 °F 34.0 °F 38% 30.14 in 10.0 mi NNW 11.5 mph 24.2 mph N/A   Clear
2:53 PM 60.1 °F 34.0 °F 38% 30.13 in 10.0 mi NNW 15.0 mph - N/A   Clear
3:53 PM 60.1 °F 34.0 °F 38% 30.12 in 10.0 mi NNW 10.4 mph 20.7 mph N/A   Clear
4:53 PM 60.1 °F 35.1 °F 39% 30.10 in 10.0 mi NNW 10.4 mph - N/A   Clear
5:53 PM 60.1 °F 36.0 °F 41% 30.12 in 10.0 mi NNW 6.9 mph - N/A   Clear
6:53 PM 60.1 °F 37.0 °F 42% 30.12 in 10.0 mi North 6.9 mph - N/A   Clear
7:53 PM 57.9 °F 34.0 °F 41% 30.14 in 10.0 mi North 8.1 mph - N/A   Clear
8:53 PM 55.0 °F 35.1 °F 47% 30.17 in 10.0 mi North 5.8 mph - N/A   Clear
9:53 PM 54.0 °F 35.1 °F 49% 30.19 in 10.0 mi North 5.8 mph - N/A   Clear
10:53 PM 54.0 °F 34.0 °F 47% 30.20 in 10.0 mi North 9.2 mph - N/A   Clear
11:53 PM 53.1 °F 34.0 °F 48% 30.21 in 10.0 mi North 6.9 mph - N/A   Clear